Tappahannock, VA

10:48 AM EST on February 19, 2017 (GMT -0500)
Tappahannock

Weather History for KXSA - October, 2012

Change the Weather History Date:

Saturday, October 6, 2012

  Actual Average (KOFP) Record (KOFP)
Temperature  
Mean Temperature 70 °F -  
Max Temperature 83 °F 72 °F 94 °F (1951)
Min Temperature 58 °F 49 °F 29 °F (1965)
Cooling Degree Days 6    
Growing Degree Days 20 (Base 50)    
Moisture  
Dew Point 59 °F    
Average Humidity 76    
Maximum Humidity 100    
Minimum Humidity 49    
Precipitation  
Precipitation 0.00 in - - ()
Sea Level Pressure  
Sea Level Pressure 29.93 in    
Wind  
Wind Speed 5 mph (SW)    
Max Wind Speed 12 mph    
Max Gust Speed 21 mph    
Visibility 10 miles    
Events      
Averages and records for this station are not official NWS values.
T = Trace of Precipitation, MM = Missing Value Source: NWS Daily Summary

Daily Weather History Graph

Daily Weather History Graph

Search for Another Location

Airport or City:

Trip Planner

Search our weather history database for the weather conditions in past years. The results will help you decide how hot, cold, wet, or windy it might be!

Date:

Astronomy

Oct. 06, 2012 Rise Set
Actual Time 7:08 AM EDT 6:42 PM EDT
Civil Twilight 6:41 AM EDT 7:08 PM EDT
Nautical Twilight 6:11 AM EDT 7:38 PM EDT
Astronomical Twilight 5:40 AM EDT 8:09 PM EDT
Moon 11:00 PM EDT (10/6) 12:56 PM EDT (10/6)
Length of Visible Light 12h 26m
Length of Day
11h 34m
Waning Gibbous, 65% of the Moon is Illuminated
Oct 6
Waning Gibbous
Oct 8
Last Quarter
Oct 15
New
Oct 21
First Quarter
Oct 29
Full

Hourly Weather History & Observations

Time (EDT) Temp. Heat Index Dew Point Humidity Pressure Visibility Wind Dir Wind Speed Gust Speed Precip Events Conditions
12:15 AM 62.6 °F - 62.6 °F 100% 29.99 in 10.0 mi SSE 4.6 mph - N/A   Clear
12:35 AM 62.2 °F - 62.2 °F 100% 29.98 in 10.0 mi SSE 3.5 mph - N/A   Clear
12:55 AM 61.9 °F - 61.9 °F 100% 29.98 in 10.0 mi South 3.5 mph - N/A   Clear
1:15 AM 61.7 °F - 61.7 °F 100% 29.98 in 10.0 mi South 3.5 mph - N/A   Clear
1:35 AM 61.2 °F - 61.2 °F 100% 29.97 in 7.0 mi South 4.6 mph - N/A   Clear
1:55 AM 61.5 °F - 61.5 °F 100% 29.97 in 10.0 mi South 4.6 mph - N/A   Clear
2:15 AM 61.7 °F - 61.7 °F 100% 29.96 in 10.0 mi South 4.6 mph - N/A   Clear
2:35 AM 61.2 °F - 61.2 °F 100% 29.96 in 7.0 mi South 4.6 mph - N/A   Clear
2:55 AM 61.3 °F - 61.3 °F 100% 29.95 in 7.0 mi South 4.6 mph - N/A   Clear
3:15 AM 61.7 °F - 61.7 °F 100% 29.94 in 10.0 mi South 4.6 mph - N/A   Clear
3:35 AM 61.9 °F - 61.9 °F 100% 29.94 in 10.0 mi South 4.6 mph - N/A   Clear
3:55 AM 61.7 °F - 61.7 °F 100% 29.93 in 10.0 mi South 4.6 mph - N/A   Clear
4:15 AM 61.7 °F - 61.7 °F 100% 29.93 in 10.0 mi South 3.5 mph - N/A   Clear
4:55 AM 61.0 °F - 61.0 °F 100% 29.93 in 10.0 mi South 3.5 mph - N/A   Clear
5:35 AM 60.8 °F - 60.8 °F 100% 29.93 in 10.0 mi South 3.5 mph - N/A   Clear
5:55 AM 61.0 °F - 61.0 °F 100% 29.93 in 10.0 mi South 4.6 mph - N/A   Clear
6:15 AM 61.0 °F - 61.0 °F 100% 29.93 in 10.0 mi South 3.5 mph - N/A   Clear
6:35 AM 60.8 °F - 60.8 °F 100% 29.92 in 7.0 mi South 4.6 mph - N/A   Clear
6:55 AM 60.4 °F - 60.4 °F 100% 29.92 in 7.0 mi South 4.6 mph - N/A   Clear
7:15 AM 60.8 °F - 60.8 °F 100% 29.92 in 7.0 mi South 3.5 mph - N/A   Clear
7:35 AM 60.8 °F - 60.8 °F 100% 29.92 in 7.0 mi South 4.6 mph - N/A   Clear
7:55 AM 61.7 °F - 61.7 °F 100% 29.92 in 7.0 mi South 3.5 mph - N/A   Clear
8:15 AM 62.8 °F - 62.6 °F 99% 29.91 in 10.0 mi South 3.5 mph - N/A   Clear
8:35 AM 64.2 °F - 63.0 °F 96% 29.91 in 10.0 mi South 5.8 mph - N/A   Clear
8:55 AM 66.0 °F - 63.7 °F 92% 29.91 in 10.0 mi South 4.6 mph - N/A   Clear
9:15 AM 68.0 °F - 64.4 °F 88% 29.91 in 10.0 mi SSW 5.8 mph - N/A   Clear
9:35 AM 69.4 °F - 64.6 °F 84% 29.90 in 10.0 mi SSW 8.1 mph - N/A   Clear
9:55 AM 71.2 °F - 64.6 °F 79% 29.90 in 10.0 mi South 5.8 mph - N/A   Clear
10:15 AM 73.0 °F - 64.9 °F 76% 29.90 in 10.0 mi South 9.2 mph - N/A   Clear
10:35 AM 74.7 °F - 64.9 °F 72% 29.89 in 10.0 mi South 6.9 mph - N/A   Clear
10:55 AM 75.7 °F - 64.6 °F 68% 29.89 in 10.0 mi South 8.1 mph - N/A   Clear
11:15 AM 77.9 °F - 64.8 °F 64% 29.88 in 10.0 mi South 8.1 mph - N/A   Clear
11:35 AM 78.8 °F - 64.0 °F 60% 29.88 in 10.0 mi SSW 11.5 mph - N/A   Clear
11:55 AM 79.0 °F - 64.4 °F 61% 29.87 in 10.0 mi SSW 6.9 mph - N/A   Clear
12:15 PM 80.1 °F 81.7 °F 64.2 °F 58% 29.86 in 10.0 mi SSW 6.9 mph - N/A   Clear
12:35 PM 81.7 °F 83.2 °F 64.0 °F 55% 29.86 in 10.0 mi SSW 10.4 mph - N/A   Clear
12:55 PM 81.7 °F 83.0 °F 63.3 °F 54% 29.85 in 10.0 mi WSW 8.1 mph 16.1 mph N/A   Clear
1:15 PM 82.4 °F 83.2 °F 62.2 °F 50% 29.85 in 10.0 mi West 9.2 mph - N/A   Clear
1:35 PM 83.1 °F 83.9 °F 62.4 °F 49% 29.84 in 10.0 mi SW 9.2 mph - N/A   Scattered Clouds
1:55 PM 82.0 °F 83.0 °F 62.4 °F 51% 29.84 in 10.0 mi SW 10.4 mph - N/A   Mostly Cloudy
2:15 PM 81.3 °F 82.5 °F 62.6 °F 53% 29.84 in 10.0 mi West 5.8 mph - N/A   Mostly Cloudy
2:35 PM 81.0 °F 81.9 °F 61.9 °F 52% 29.84 in 10.0 mi West 6.9 mph - N/A   Mostly Cloudy
2:55 PM 79.7 °F - 62.1 °F 55% 29.84 in 10.0 mi West 6.9 mph - N/A   Overcast
3:15 PM 79.2 °F - 62.1 °F 56% 29.85 in 10.0 mi West 4.6 mph - N/A   Overcast
3:35 PM 78.3 °F - 62.6 °F 58% 29.85 in 10.0 mi WSW 3.5 mph - N/A   Overcast
3:55 PM 78.1 °F - 62.6 °F 59% 29.85 in 10.0 mi WSW 5.8 mph - N/A   Overcast
4:15 PM 79.2 °F - 62.8 °F 57% 29.86 in 10.0 mi WNW 5.8 mph - N/A   Mostly Cloudy
4:35 PM 71.8 °F - 59.9 °F 66% 29.88 in 10.0 mi NNW 9.2 mph 20.7 mph N/A   Overcast
4:55 PM 70.2 °F - 59.2 °F 68% 29.89 in 10.0 mi NNW 8.1 mph 18.4 mph N/A   Overcast
5:15 PM 69.6 °F - 59.4 °F 70% 29.90 in 10.0 mi NNW 8.1 mph - N/A   Overcast
5:35 PM 69.8 °F - 56.5 °F 63% 29.91 in 10.0 mi NNW 9.2 mph 18.4 mph N/A   Mostly Cloudy
5:55 PM 67.8 °F - 55.0 °F 64% 29.91 in 10.0 mi NNW 5.8 mph 19.6 mph N/A   Scattered Clouds
6:15 PM 67.5 °F - 55.9 °F 66% 29.92 in 10.0 mi NNW 6.9 mph - N/A   Scattered Clouds
6:35 PM 66.6 °F - 54.1 °F 64% 29.93 in 10.0 mi NW 6.9 mph - N/A   Scattered Clouds
7:15 PM 64.6 °F - 52.9 °F 66% 29.95 in 10.0 mi NNW 5.8 mph - N/A   Clear
7:35 PM 64.4 °F - 52.3 °F 65% 29.96 in 10.0 mi NNW 4.6 mph - N/A   Clear
7:55 PM 63.1 °F - 52.2 °F 67% 29.96 in 10.0 mi NW 5.8 mph - N/A   Clear
8:15 PM 63.0 °F - 51.1 °F 65% 29.98 in 10.0 mi NW 5.8 mph - N/A   Scattered Clouds
8:35 PM 62.8 °F - 50.9 °F 65% 29.99 in 10.0 mi NNW 5.8 mph - N/A   Mostly Cloudy
8:55 PM 62.6 °F - 50.4 °F 64% 30.00 in 10.0 mi NW 5.8 mph - N/A   Overcast
9:15 PM 61.9 °F - 50.2 °F 65% 30.01 in 10.0 mi NNW 6.9 mph - N/A   Mostly Cloudy
9:35 PM 61.7 °F - 49.1 °F 63% 30.02 in 10.0 mi NNW 5.8 mph - N/A   Mostly Cloudy
9:55 PM 61.2 °F - 48.2 °F 62% 30.03 in 10.0 mi North 4.6 mph - N/A   Overcast
10:15 PM 60.8 °F - 47.8 °F 62% 30.03 in 10.0 mi North 6.9 mph - N/A   Mostly Cloudy
10:35 PM 60.4 °F - 46.6 °F 60% 30.04 in 10.0 mi North 5.8 mph - N/A   Mostly Cloudy
10:55 PM 60.4 °F - 46.9 °F 61% 30.04 in 10.0 mi North 4.6 mph - N/A   Mostly Cloudy
11:15 PM 59.5 °F - 47.3 °F 64% 30.04 in 10.0 mi North 5.8 mph - N/A   Overcast
11:35 PM 58.5 °F - 46.6 °F 65% 30.03 in 10.0 mi North 3.5 mph - N/A   Scattered Clouds
11:55 PM 58.8 °F - 45.5 °F 61% 30.04 in 10.0 mi North 5.8 mph - N/A   Scattered Clouds